Weather reports worldwide

Advertisment
Valley, United Kingdom (3302): temperature & dewpoint: 13.02.2018 16:00:00 - 19.02.2018 16:00:00 (GMT)Valley, United Kingdom (3302): temperature -20cm & temperature -100cm: 13.02.2018 16:00:00 - 19.02.2018 16:00:00 (GMT)Valley, United Kingdom (3302): wind speed & gusts: 13.02.2018 16:00:00 - 19.02.2018 16:00:00 (GMT)Valley, United Kingdom (3302): wind direction: 13.02.2018 16:00:00 - 19.02.2018 16:00:00 (GMT)Valley, United Kingdom (3302): reduced air pressure: 13.02.2018 16:00:00 - 19.02.2018 16:00:00 (GMT)Valley, United Kingdom (3302): visibility: 13.02.2018 16:00:00 - 19.02.2018 16:00:00 (GMT)Valley, United Kingdom (3302): sunshine duration: 13.02.2018 16:00:00 - 19.02.2018 16:00:00 (GMT)Valley, United Kingdom (3302): precipitation: 13.02.2018 16:00:00 - 19.02.2018 16:00:00 (GMT)
Date & Time tt [°C] td [°C] tt -20cm [°C] tt -100cm [°C] ff [km/h] ff [kn] fx [km/h] fx [kn] dd ppp [hPa] vv [km] sd [min] rr [mm]
19.02.2018 16:00:00 - - - - - - - - - - - - -
19.02.2018 15:00:00 10,2 9,2 - - 18 10 - - WNW 1018,7 10 0 0,0
19.02.2018 14:00:00 11,3 9,1 - - 18 10 - - W 1018,5 10 0 0,0
19.02.2018 13:00:00 11,6 9,6 - - 21 11 - - WNW 1018,6 20 0 0,0
19.02.2018 12:00:00 10,8 9,4 - - 15 8 - - WNW 1018,7 10 0 0,0
19.02.2018 11:00:00 9,9 9,2 - - 16 9 - - NW 1018,6 10 0 0,0
19.02.2018 10:00:00 9,6 9,4 - - 9 5 - - WNW 1018,5 10 0 0,0
19.02.2018 09:00:00 9,2 9,1 7,2 7,4 13 7 - - WNW 1018,2 10 0 0,0
19.02.2018 08:00:00 9,1 9,0 - - 11 6 - - WNW 1017,9 10 0 0,0
19.02.2018 07:00:00 9,3 9,3 - - 13 7 - - WNW 1017,5 7 0 0,0
19.02.2018 06:00:00 8,8 - - - 8 4 - - WNW 1017,3 5 0 0,0
19.02.2018 05:00:00 8,7 8,7 - - 5 3 - - W 1017,0 5 0 0,0
19.02.2018 04:00:00 8,3 - - - 2 1 - - SSW 1017,2 5 0 0,0
19.02.2018 03:00:00 8,0 8,0 - - 4 2 - - SSE 1017,3 5 0 0,0
19.02.2018 02:00:00 8,1 8,1 - - 5 3 - - S 1017,5 4,8 0 0,0
19.02.2018 01:00:00 8,2 8,2 - - 5 3 - - S 1017,7 4,8 0 0,0
19.02.2018 00:00:00 7,9 7,9 - - 4 2 - - S 1017,7 3,8 - 0,0
18.02.2018 23:00:00 7,6 7,6 - - 13 7 - - SSE 1017,5 5 0 0,2
18.02.2018 22:00:00 7,6 7,5 - - 15 8 - - SSE 1017,5 5 0 0,4
18.02.2018 21:00:00 7,2 7,2 - - 16 9 - - SSE 1017,6 4,7 0 1,2
18.02.2018 20:00:00 7,5 7,4 - - 22 12 - - S 1017,6 3,3 0 1,0
18.02.2018 19:00:00 7,4 7,3 - - 21 11 - - S 1017,6 3,4 0 0,8
18.02.2018 18:00:00 7,4 7,2 - - 22 12 - - S 1017,6 4,9 0 1,0
18.02.2018 17:00:00 7,4 - - - 22 12 - - S 1017,6 5 0 0,8
18.02.2018 16:00:00 7,6 7,6 - - 22 12 - - S 1017,7 4,4 0 0,4
18.02.2018 15:00:00 7,8 7,5 - - 21 11 - - S 1017,8 10 0 0,4
18.02.2018 14:00:00 7,9 7,2 - - 22 12 - - S 1018,1 11 0 0,0
18.02.2018 13:00:00 8,2 6,8 - - 18 10 - - S 1018,3 16 0 0,0
18.02.2018 12:00:00 8,2 6,2 - - 21 11 - - S 1018,6 40 0 0,0
18.02.2018 11:00:00 8,1 6,2 - - 21 11 - - S 1018,3 50 0 0,0
18.02.2018 10:00:00 7,7 5,8 - - 11 6 - - SSE 1018,4 45 0 0,0
18.02.2018 09:00:00 6,2 5,5 6,5 7,2 8 4 - - ESE 1018,3 10 0 0,0
18.02.2018 08:00:00 5,4 4,7 - - 8 4 - - E 1018,8 45 0 0,0
18.02.2018 07:00:00 5,3 4,6 - - 8 4 - - E 1018,8 30 0 0,0
18.02.2018 06:00:00 5,4 4,7 - - 8 4 - - ESE 1018,8 10 0 0,0
18.02.2018 05:00:00 6,2 5,4 - - 13 7 - - SE 1018,3 30 0 0,0
18.02.2018 04:00:00 6,6 6,2 - - 13 7 - - SE 1018,8 30 0 0,0
18.02.2018 03:00:00 6,5 6,5 - - 16 9 - - SSE 1018,9 10 0 0,0
18.02.2018 02:00:00 6,5 6,0 - - 13 7 - - SE 1019,5 23 0 0,0
18.02.2018 01:00:00 6,5 6,3 - - 11 6 - - SSE 1019,7 10 0 0,0
18.02.2018 00:00:00 6,6 6,2 - - 15 8 - - SSE 1019,7 15 - 0,0
17.02.2018 23:00:00 5,6 5,5 - - 15 8 - - SE 1019,5 15 0 0,0
17.02.2018 22:00:00 5,6 5,6 - - 16 9 - - SSE 1019,5 11 0 0,0
17.02.2018 21:00:00 6,2 5,8 - - 16 9 - - S 1019,5 15 0 0,0
17.02.2018 20:00:00 6,2 5,7 - - 18 10 - - S 1019,4 18 0 0,0
17.02.2018 19:00:00 5,9 5,6 - - 16 9 - - SSE 1019,3 14 0 0,0
17.02.2018 18:00:00 6,5 6,0 - - 18 10 - - S 1019,2 10 18 0,0
17.02.2018 17:00:00 7,1 6,0 - - 16 9 - - S 1018,9 19 60 0,0
17.02.2018 16:00:00 8,2 6,5 - - 18 10 - - S 1019,0 14 60 0,0
17.02.2018 15:00:00 7,9 5,3 - - 18 10 - - SSW 1019,0 26 60 0,0
17.02.2018 14:00:00 8,6 5,9 - - 24 13 - - SSW 1019,2 29 60 0,0
17.02.2018 13:00:00 8,2 5,8 - - 18 10 - - SSW 1019,3 19 60 0,0
17.02.2018 12:00:00 8,2 5,9 - - 21 11 - - SSW 1019,7 14 60 0,0
17.02.2018 11:00:00 7,7 6,0 - - 21 11 - - SW 1019,4 10 18 0,0
17.02.2018 10:00:00 6,8 5,9 - - 18 10 - - SSW 1018,9 15 48 0,0
17.02.2018 09:00:00 5,5 5,3 6,2 7,2 15 8 - - SSW 1018,4 11 36 0,0
17.02.2018 08:00:00 4,0 3,8 - - 9 5 - - SW 1018,0 6 0 0,0
17.02.2018 07:00:00 5,0 4,2 - - 15 8 - - WSW 1017,4 12 0 0,0
17.02.2018 06:00:00 6,2 6,2 - - 16 9 - - WSW 1016,9 6 0 1,4
17.02.2018 05:00:00 5,5 5,3 - - 24 13 50 27 SSE 1016,8 6 0 2,0
17.02.2018 04:00:00 5,7 5,0 - - 37 20 48 26 S 1017,0 6 0 1,0
17.02.2018 03:00:00 5,9 4,3 - - 37 20 52 28 S 1017,0 8 0 0,6
17.02.2018 02:00:00 6,5 3,6 - - 37 20 57 31 S 1017,2 14 0 0,0
17.02.2018 01:00:00 6,4 3,1 - - 42 23 65 35 S 1017,2 16 0 0,0
17.02.2018 00:00:00 6,6 3,2 - - 44 24 59 32 S 1017,6 15 - 0,0
16.02.2018 23:00:00 6,1 4,0 - - 41 22 59 32 S 1017,8 9 0 0,8
16.02.2018 22:00:00 6,2 4,4 - - 35 19 46 25 S 1018,2 10 0 0,4
16.02.2018 21:00:00 6,2 5,0 - - 37 20 48 26 S 1018,2 6 0 0,0
16.02.2018 20:00:00 7,0 3,2 - - 35 19 48 26 S 1018,1 18 0 0,0
16.02.2018 19:00:00 6,9 3,3 - - 35 19 48 26 S 1018,4 16 0 0,0
16.02.2018 18:00:00 7,1 3,2 - - 35 19 46 25 S 1018,7 10 0 0,0
16.02.2018 17:00:00 7,1 4,4 - - 31 17 - - S 1018,9 10 0 0,0
16.02.2018 16:00:00 7,6 4,2 - - 34 18 48 26 S 1019,4 10 0 0,0
16.02.2018 15:00:00 7,9 4,5 - - 31 17 - - S 1019,8 10 0 0,0
16.02.2018 14:00:00 8,2 4,8 - - 31 17 - - S 1020,3 10 60 0,0
16.02.2018 13:00:00 8,1 4,6 - - 28 15 - - S 1020,9 10 0 0,0
16.02.2018 12:00:00 7,8 4,2 - - 34 18 - - S 1021,3 10 42 0,0
16.02.2018 11:00:00 8,2 4,5 - - 31 17 - - SSW 1021,4 10 60 0,0
16.02.2018 10:00:00 7,6 4,4 - - 31 17 - - S 1021,4 10 42 0,0
16.02.2018 09:00:00 6,5 3,8 5,7 7,4 29 16 - - SSW 1021,3 10 30 0,0
16.02.2018 08:00:00 5,5 2,3 - - 24 13 - - SSW 1020,9 10 0 0,0
16.02.2018 07:00:00 5,3 1,6 - - 26 14 - - SW 1020,5 10 0 0,0
16.02.2018 06:00:00 5,2 0,8 - - 22 12 - - SW 1020,3 10 0 0,0
16.02.2018 05:00:00 5,0 1,0 - - 28 15 - - WSW 1019,8 19 0 0,0
16.02.2018 04:00:00 5,0 0,6 - - 29 16 - - WSW 1019,3 20 0 0,0
16.02.2018 03:00:00 5,0 0,6 - - 28 15 - - WSW 1018,9 17 0 0,0
16.02.2018 02:00:00 5,0 0,1 - - 34 18 50 27 WSW 1018,3 16 0 0,0
16.02.2018 01:00:00 4,9 -0,4 - - 35 19 48 26 WSW 1017,8 17 0 0,0
16.02.2018 00:00:00 4,8 -0,4 - - 37 20 48 26 WSW 1017,1 16 - 0,0
15.02.2018 23:00:00 4,9 -0,8 - - 31 17 48 26 WSW 1016,6 19 0 0,0
15.02.2018 22:00:00 5,0 -1,1 - - 35 19 52 28 WSW 1015,9 24 0 0,0
15.02.2018 21:00:00 5,0 -1,4 - - 35 19 50 27 WSW 1014,8 10 0 0,0
15.02.2018 20:00:00 4,9 -1,4 - - 35 19 55 30 WSW 1013,7 10 0 0,0
15.02.2018 19:00:00 5,6 -0,8 - - 44 24 61 33 WSW 1012,5 10 0 0,0
15.02.2018 18:00:00 5,5 -2,8 - - 42 23 63 34 WSW 1011,5 10 18 0,0
15.02.2018 17:00:00 6,2 -2,0 - - 44 24 57 31 WSW 1010,4 10 54 0,0
15.02.2018 16:00:00 6,6 -1,7 - - 44 24 61 33 SW 1009,6 10 48 0,0
15.02.2018 15:00:00 6,3 -1,3 - - 41 22 63 34 SW 1008,8 10 42 0,0
15.02.2018 14:00:00 7,0 -1,0 - - 52 28 70 38 SW 1008,2 10 60 0,0
15.02.2018 13:00:00 6,7 -3,1 - - 54 29 72 39 WSW 1007,6 10 60 0,0
15.02.2018 12:00:00 6,7 -2,5 - - 46 25 63 34 SW 1006,8 10 60 0,0
15.02.2018 11:00:00 6,1 -2,0 - - 44 24 65 35 WSW 1006,1 10 42 0,0
15.02.2018 10:00:00 5,2 -2,0 - - 54 29 81 44 WSW 1005,0 10 42 0,0
15.02.2018 09:00:00 5,2 -2,2 6,0 7,2 54 29 68 37 WSW 1003,5 10 24 0,0
15.02.2018 08:00:00 5,1 -2,9 - - 46 25 68 37 WSW 1002,5 10 0 0,0
15.02.2018 07:00:00 5,4 -2,1 - - 48 26 67 36 SW 1001,5 10 0 0,0
15.02.2018 06:00:00 5,9 -0,2 - - 42 23 57 31 WSW 1000,8 10 0 0,0
15.02.2018 05:00:00 5,9 0,4 - - 34 18 54 29 SW 999,2 20 0 0,0
15.02.2018 04:00:00 6,6 1,6 - - 31 17 54 29 WSW 998,7 23 0 0,0
15.02.2018 03:00:00 7,1 4,4 - - 34 18 48 26 WSW 997,4 11 0 0,0
15.02.2018 02:00:00 7,3 5,5 - - 31 17 - - SW 996,1 11 0 0,0
15.02.2018 01:00:00 7,4 5,2 - - 34 18 52 28 WSW 995,6 11 0 0,0
15.02.2018 00:00:00 7,8 6,0 - - 35 19 46 25 SSW 995,4 8 - 0,2
14.02.2018 23:00:00 7,5 5,9 - - 35 19 46 25 SSW 995,0 9 0 0,0
14.02.2018 22:00:00 7,3 6,4 - - 28 15 - - SSW 994,7 6 0 0,0
14.02.2018 21:00:00 7,1 6,7 - - 29 16 - - SSW 994,0 5 0 0,0
14.02.2018 20:00:00 7,0 7,0 - - 24 13 - - S 993,8 3,1 0 0,0
14.02.2018 19:00:00 7,4 7,4 - - 26 14 - - S 993,0 10 0 0,0
14.02.2018 18:00:00 7,5 7,5 - - 26 14 - - SSW 992,8 7 0 0,0
14.02.2018 17:00:00 7,7 7,5 - - 35 19 52 28 S 992,1 10 0 0,0
14.02.2018 16:00:00 7,3 6,9 - - 42 23 68 37 S 991,6 9 0 0,6
14.02.2018 15:00:00 6,9 6,2 - - 54 29 74 40 S 991,0 4,5 0 0,0
14.02.2018 14:00:00 6,9 5,0 - - 61 33 80 43 S 991,1 4,0 0 0,0
14.02.2018 13:00:00 6,8 3,7 - - 63 34 87 47 SSE 991,1 10 0 0,0
14.02.2018 12:00:00 6,1 3,0 - - 67 36 91 49 S 992,0 10 0 0,0
14.02.2018 11:00:00 5,5 3,3 - - 70 38 94 51 S 992,4 10 0 0,0
14.02.2018 10:00:00 5,2 2,5 - - 65 35 87 47 S 993,1 10 0 -
14.02.2018 09:00:00 4,9 1,8 5,5 7,4 65 35 91 49 S 994,3 10 0 0,0
14.02.2018 08:00:00 5,3 -0,2 - - 55 30 74 40 SSE 995,1 10 0 0,0
14.02.2018 07:00:00 5,1 -0,3 - - 52 28 74 40 SSE 996,3 10 0 0,0
14.02.2018 06:00:00 5,0 -0,4 - - 54 29 76 41 SSE 997,5 25 0 0,0
14.02.2018 05:00:00 4,6 0,0 - - 52 28 68 37 SSE 998,7 28 0 0,0
14.02.2018 04:00:00 5,0 0,2 - - 48 26 61 33 SSE 999,9 21 0 0,0
14.02.2018 03:00:00 4,5 -0,2 - - 39 21 57 31 SSE 1000,7 30 0 0,0
14.02.2018 02:00:00 5,0 0,9 - - 39 21 52 28 SSE 1002,1 30 0 0,0
14.02.2018 01:00:00 4,9 0,9 - - 34 18 - - SSE 1003,1 10 0 0,0
14.02.2018 00:00:00 5,0 -1,2 - - 29 16 - - S 1003,3 35 - 0,0
13.02.2018 23:00:00 4,7 -1,5 - - 28 15 - - S 1003,9 30 0 0,0
13.02.2018 22:00:00 4,3 -2,4 - - 26 14 - - S 1004,3 20 0 0,0
13.02.2018 21:00:00 4,2 -3,0 - - 21 11 - - SSW 1004,7 10 0 0,0
13.02.2018 20:00:00 3,2 -2,3 - - 13 7 - - SW 1004,8 10 0 0,0
13.02.2018 19:00:00 2,3 -2,4 - - 8 4 - - WSW 1004,5 10 0 0,0
13.02.2018 18:00:00 2,9 -1,9 - - 9 5 - - W 1003,9 10 12 0,0
13.02.2018 17:00:00 4,8 -2,6 - - 15 8 - - WNW 1003,0 10 60 0,0
13.02.2018 16:00:00 5,9 -3,0 - - 22 12 - - WNW 1002,4 10 48 0,0

tt = temperature
td = dewpoint
tt -20cm = temperature -20cm
tt -100cm = temperature -100cm
ff = wind speed
fx = gusts
dd = wind direction
ppp = reduced air pressure
vv = visibility
sd = sunshine duration
rr = precipitation

Next stations